User: anonymous   Login
Location: Unspecified
(0.0000°N, 0.0000°E)
Time: 19:53:11
(UTC+00:00)
Language:

OPTOS - Orbit

View from above orbital plane
View from above orbital plane
View from above satellite
View from above satellite

Ground track
Ground track

The orbit data is extracted from the following two-line orbital elements,

1 39429U 13066P   17269.45731818  .00000397  00000-0  78530-4 0  9991
2 39429  97.6666 263.4823 0148242  74.8779 286.8760 14.60534224204891
Epoch (UTC): 26 September 2017 10:58:32
Eccentricity: 0.0148242
inclination: 97.6666°
perigee height: 586 km
apogee height: 796 km
right ascension of ascending node: 263.4823°
argument of perigee: 74.8779°
revolutions per day: 14.60534224
mean anomaly at epoch: 286.8760°
orbit number at epoch: 20489

The dashed part of the orbit path shows where the satellite is in the earth's shadow,  

DLR